EW9824 Weather Reports


Display with metric or nautical units.
time (UTC)temp
F
wind
direction
speed
MPH
gust
MPH
rain 1hr
in
rain 24hr
in
rain mn
in
humidity
%
barometer
mb
20260507010031 68 274 9.0 18.0 0.00 0.00 0.00 44 1021.5
20260507004530 71 272 9.0 17.0 0.00 0.00 0.00 41 1021.4
20260507003032 72 263 6.0 14.0 0.00 0.00 0.00 42 1021.2
20260507001531 71 277 7.0 15.0 0.00 0.00 0.00 41 1021.2
20260507000108 72 260 7.0 17.0 0.00 0.00 0.00 41 1021.1
20260506234532 72 282 6.0 17.0 0.00 0.00 0.00 42 1021.0
20260506233032 73 287 5.0 13.0 0.00 0.00 0.00 40 1021.0
20260506231604 73 274 7.0 16.0 0.00 0.00 0.00 39 1020.9
20260506230031 74 278 8.0 16.0 0.00 0.00 0.00 38 1020.8
20260506224530 76 263 7.0 17.0 0.00 0.00 0.00 38 1021.0
20260506223029 75 269 5.0 14.0 0.00 0.00 0.00 40 1021.1
20260506221532 73 286 6.0 14.0 0.00 0.00 0.00 41 1021.3
20260506220033 75 288 7.0 18.0 0.00 0.00 0.00 41 1021.2
20260506214533 74 282 6.0 16.0 0.00 0.00 0.00 41 1021.1
20260506211529 73 273 6.0 15.0 0.00 0.00 0.00 43 1021.2
20260506210028 72 302 5.0 13.0 0.00 0.00 0.00 46 1021.2
20260506204530 71 314 7.0 15.0 0.00 0.00 0.00 46 1021.3
20260506203030 71 299 9.0 17.0 0.00 0.00 0.00 45 1021.3
20260506201645 72 302 7.0 17.0 0.00 0.00 0.00 45 1021.2
20260506200028 72 306 7.0 19.0 0.00 0.00 0.00 45 1021.2
20260506194534 72 286 6.0 13.0 0.00 0.00 0.00 46 1021.2
20260506193029 71 294 6.0 15.0 0.00 0.00 0.00 49 1021.3
20260506191531 70 307 6.0 14.0 0.00 0.00 0.00 51 1021.4
20260506190031 69 297 8.0 17.0 0.00 0.00 0.00 52 1021.4
20260506184530 69 327 6.0 15.0 0.00 0.00 0.00 54 1021.2
20260506181530 67 307 6.0 14.0 0.00 0.00 0.00 56 1021.5
20260506174529 68 318 5.0 14.0 0.00 0.00 0.00 57 1021.3
20260506171530 65 30 4.0 8.0 0.00 0.00 0.00 63 1021.1
20260506170031 64 358 6.0 12.0 0.00 0.00 0.00 64 1021.1
20260506164530 63 68 6.0 12.0 0.00 0.00 0.00 66 1021.3
20260506163107 63 358 7.0 14.0 0.00 0.00 0.00 67 1021.7
20260506161530 62 348 5.0 10.0 0.00 0.00 0.00 69 1021.8
20260506160114 61 346 4.0 11.0 0.00 0.00 0.00 72 1021.6
20260506154530 60 352 4.0 9.0 0.00 0.00 0.00 75 1021.7
20260506153034 58 344 5.0 8.0 0.00 0.00 0.00 82 1021.4
20260506151529 55 64 1.0 4.0 0.00 0.00 0.00 92 1021.2
20260506143037 48 172 1.0 3.0 0.00 0.00 0.00 96 1021.3
20260506141531 46 149 2.0 5.0 0.00 0.00 0.00 95 1021.0
20260506140030 45 157 2.0 4.0 0.00 0.00 0.00 94 1020.9
20260506134531 47 199 2.0 4.0 0.00 0.00 0.00 92 1020.8
20260506133033 49 297 4.0 16.0 0.00 0.00 0.00 96 1020.7
20260506131648 45 301 4.0 13.0 0.00 0.00 0.00 97 1020.6
20260506124534 45 173 3.0 6.0 0.00 0.00 0.00 97 1020.4
20260506123030 44 147 2.0 7.0 0.00 0.00 0.00 97 1020.1
20260506120034 44 186 2.0 7.0 0.00 0.00 0.00 96 1019.9
20260506114535 45 175 2.0 4.0 0.00 0.00 0.00 96 1019.8
20260506113108 45 147 2.0 4.0 0.00 0.00 0.00 96 1019.6
20260506111651 45 156 1.0 4.0 0.00 0.00 0.00 96 1019.5
20260506110034 46 177 2.0 6.0 0.00 0.00 0.00 96 1019.4
20260506104531 46 181 2.0 4.0 0.00 0.00 0.00 96 1019.2
20260506103033 46 187 3.0 4.0 0.00 0.00 0.00 96 1019.1
20260506101531 46 176 3.0 4.0 0.00 0.00 0.00 96 1019.0
20260506094609 46 180 2.0 4.0 0.00 0.00 0.00 95 1019.0
20260506093031 46 177 1.0 3.0 0.00 0.00 0.00 95 1019.0
20260506090031 47 179 2.0 4.0 0.00 0.00 0.00 94 1018.9
20260506083029 48 183 2.0 3.0 0.00 0.00 0.00 94 1018.7
20260506081539 48 180 2.0 4.0 0.00 0.00 0.00 93 1018.6
20260506073106 49 167 1.0 3.0 0.00 0.00 0.00 91 1018.3
20260506071531 50 168 2.0 4.0 0.00 0.00 0.00 90 1018.3
20260506070110 50 173 2.0 3.0 0.00 0.00 0.00 90 1018.2
20260506061537 51 175 2.0 4.0 0.00 0.00 0.00 88 1018.0
20260506044532 56 83 1.0 2.0 0.00 0.00 0.00 76 1017.4
20260506043030 58 71 1.0 3.0 0.00 0.00 0.00 73 1017.2
20260506041531 60 35 2.0 4.0 0.00 0.00 0.00 69 1017.1
20260506040107 61 22 4.0 7.0 0.00 0.00 0.00 68 1016.9
20260506034529 62 29 4.0 7.0 0.00 0.00 0.00 66 1016.6
20260506033030 63 20 3.0 9.0 0.00 0.00 0.00 64 1016.4
20260506031530 65 27 3.0 7.0 0.00 0.00 0.00 61 1016.2
20260506030031 66 6 4.0 7.0 0.00 0.00 0.00 59 1016.0
20260506024530 68 15 4.0 7.0 0.00 0.00 0.00 57 1015.8
20260506023029 69 24 3.0 6.0 0.00 0.00 0.00 55 1015.7
20260506021537 70 18 3.0 7.0 0.00 0.00 0.00 55 1015.7
20260506020031 71 32 6.0 10.0 0.00 0.00 0.00 54 1015.6
20260506013031 72 14 6.0 11.0 0.00 0.00 0.00 52 1015.4
20260506011529 73 360 5.0 10.0 0.00 0.00 0.00 51 1015.3